Location: Unspecified
(0.0000°N, 0.0000°E)
Time: 11:13:55
(UTC+00:00)

Vanguard 1 Rocket - Pass Details

Date: 28 November 2019
Orbit: 650 x 4226 km, 34.3° (Epoch: 13 December)

Event Time Altitude Azimuth Distance (km) Brightness Sun altitude
Rises 20:42:41 0° 236° (WSW) 8,250 13.2 -40.0°
Reaches altitude 10° 20:48:55 10° 238° (WSW) 6,914 12.5 -41.4°
Enters shadow 21:09:18 73° 307° (NW) 2,546 9.4 -45.8°
Maximum altitude 21:09:45 73° 320° (NW) 2,505 - -45.9°
Drops below altitude 10° 21:20:11 10° 44° (NE) 3,752 - -48.1°
Sets 21:22:32 0° 47° (NE) 4,422 - -48.6°
